Lid_Strength_Index
5 5 4 4 4 3 3 3 3 2 2 2 2 2 2 1 1 1 2 2 1 2 2 1 1 1 1 2 3 3 3 3 3
6 5 5 4 3 3 3 3 3 2 2 2 2 2 1 1 1 1 2 2 1 1 1 1 1 1 1 2 3 3 3 3 3
6 5 5 5 4 3 3 2 2 2 2 2 2 2 1 1 1 1 1 1 1 1 2 2 1 1 1 2 3 3 3 3 3
6 5 5 5 4 4 3 2 2 2 2 2 2 2 2 2 1 1 1 1 1 2 2 2 2 1 1 2 2 3 3 3 3
5 5 4 4 5 4 3 3 3 3 2 2 2 2 2 2 1 1 1 1 1 1 2 2 2 2 2 1 2 2 2 3 2
6 5 5 4 5 5 4 3 3 3 2 2 2 2 2 2 2 2 2 1 1 1 1 2 2 2 2 1 2 3 2 2 3
6 6 5 4 5 5 4 3 3 3 3 2 2 2 2 2 2 2 1 1 1 1 1 2 2 2 2 2 1 2 2 2 3
6 6 6 5 5 5 5 4 3 3 2 2 2 2 2 2 2 2 1 1 1 1 1 1 2 3 3 2 2 2 2 3 3
6 6 5 5 6 4 4 3 3 3 3 3 2 2 3 2 2 2 2 2 1 1 1 1 1 2 2 2 2 4 4 3 3
6 5 5 6 7 5 4 3 3 3 3 2 3 3 2 2 2 2 2 2 2 2 2 1 2 2 2 2 2 5 5 4 2
7 6 5 6 6 6 5 3 2 2 2 2 3 3 3 2 2 2 2 2 2 2 2 2 2 2 2 2 2 6 6 4 2
5 5 6 5 5 4 4 4 2 3 3 3 3 3 3 2 2 2 2 2 2 2 2 2 2 2 2 3 3 7 7 6 3
5 5 5 5 4 3 3 3 3 3 3 3 3 3 3 2 2 2 3 2 2 2 2 2 2 2 3 4 3 9 10 6 4
6 6 6 6 4 4 3 3 3 3 3 4 3 2 2 2 2 2 2 2 2 2 2 2 2 2 2 3 3 8 11 8 4
5 5 5 6 6 4 4 3 3 3 4 3 2 2 2 2 2 2 2 2 2 2 2 3 3 3 2 3 5 9 10 9 7
5 5 5 4 6 7 7 4 3 4 3 2 2 2 3 3 2 2 2 2 3 3 2 3 3 4 3 4 4 5 10 11 9
6 5 5 4 4 5 5 4 4 4 3 3 3 3 3 3 3 3 2 2 2 3 3 3 4 4 4 4 4 5 7 7 7
5 5 5 4 5 5 5 4 4 4 3 3 3 3 3 3 3 3 10 13 13 7 6 4 4 4 4 3 3 2 5 7 5
5 5 5 5 4 4 4 4 4 4 4 3 3 4 3 4 7 7 8 8 8 14 13 12 12 11 8 4 7 10 11 12 12
7 5 5 5 4 4 4 5 5 4 4 5 6 6 7 7 8 7 7 5 6 8 8 9 10 12 11 10 10 13 14 13 12